Starlink 5586

operational
NORAD ID: 55376 Int'l Des: 2023-013 Owner: SPXS Country: US Constellation: starlink
LEOCIRCULAR

Über Starlink 5586

Beschreibung wird geladen...

Live-Position

3D-Globus wird geladen...

Nächste Überflüge

Höhenverlauf

Altitude vs Time

uPlot chart will show altitude changes over time

Zweizeiliger Elementsatz

1 55376U 23013AX 26062.15594156 .00000467 00000-0 49621-4 0 9990
2 55376 43.0039 323.0658 0001035 269.7038 90.3686 15.02536891170873
Epoch: 3. März 2026 • Age: 20 hours

Aktueller Status

Höhe 562.2 km
Geschwindigkeit 7.58 km/s
Subsatellitenpunkt -16.99°S, 154.91°W
Startdatum 26. Jan. 2023
Alter 3 years
Typ internet

Technische Details

Klassifizierung Payload
Masse 305.00 kg
Trockenmasse 290.00 kg
Gesamtmasse 305.00 kg
Länge 0.20 m
Durchmesser 2.80 m
Spannweite 9.00 m
Form Box + pan
Hersteller SPXS
Bus-Typ Starlink
Phasenstatus In Orbit
Besitzer/Staat SPXS/US

Große Konstellationen

Loading constellations...